Location: Neuvy Saint Sepulchre
(46.5953°N, 1.8122°E)
Time: 14:10:57
(UTC+02:00)

ISS - Pass Details

Date: 29 September 2022
Orbit: 414 x 417 km, 51.6° (Epoch: 01 October)

Event Time Altitude Azimuth Distance (km) Brightness Sun altitude
Rises 20:28:59 0° 294° (WNW) 2,362 1.7 -9.8°
Reaches altitude 10° 20:31:08 10° 301° (WNW) 1,497 0.2 -10.2°
Maximum altitude 20:34:24 47° 17° (NNE) 563 -3.2 -10.7°
Enters shadow 20:36:41 17° 86° (E) 1,125 -2.2 -11.1°
